Starlink 3391

operational
NORAD ID: 51117 Int'l Des: 2022-005 Owner: SPXS Country: US Constellation: starlink
LEOCIRCULAR

About Starlink 3391

Description loading...

Live Position

Loading 3D Globe...

Upcoming Passes

Altitude History

Altitude vs Time

uPlot chart will show altitude changes over time

Two-Line Element Set

1 51117U 22005P 25257.52252836 -.00000684 00000-0 -24884-4 0 9998
2 51117 53.2183 359.8611 0001220 93.1604 266.9528 15.08827790202289
Epoch: Sep 14, 2025 • Age: 20 hours

Current Status

Altitude 557.2 km
Velocity 7.58 km/s
Sub-Earth Point -48.35°S, 171.19°E
Launch Date Jan 19, 2022
Age 3.6 years
Type internet

Technical Details

Classification Payload
Mass 297.00 kg
Dry Mass 275.00 kg
Total Mass 297.00 kg
Length 0.20 m
Diameter 2.80 m
Span 9.00 m
Shape Box + pan
Manufacturer SPXS
Bus Type Starlink
Phase Status In Orbit
Owner/State SPXS/US

Large Constellations

Loading constellations...